Powrót do katalogu

NIMBUS 2 DEB

LostLEO
NORAD 28611·DEBRIS·🇺🇸 United States

Wystrzelony May 15, 1966 z Vandenberg Space Force Base

Loading…

Następne Przeloty (najbliższe 24 godziny)

TLE

NieaktualneSource: Space-Track

Epoka: Aug 18, 2022, 08:26 UTC

1 28611U 66040AA  22230.35175896  .00004063  00000-0  27668-2 0  9991
2 28611 100.1293  55.1541 0042870 344.1138  15.8675 14.00155172944546

Śledź NIMBUS 2 DEB w czasie rzeczywistym z AllMySat

Download on the App Store